RH
78 76 77 74 86 76 92 92 91 59 82 85 70 90 56 38 27 22 22 27 29 30 29 30 30 30 28 32 36 54 49 34 42 43 28 21 24 29 32 54 58 39 50 41
81 71 70 76 90 82 98 96 63 54 82 94 75 50 46 38 33 27 26 28 25 24 27 33 28 28 24 28 30 49 48 45 53 40 36 33 32 31 28 34 52 92 73 56
76 72 76 77 84 83 94 98 82 53 81 67 60 62 50 46 30 29 28 25 23 24 28 27 32 29 25 26 26 39 40 66 58 50 56 66 65 33 39 40 82 81 81 51
73 81 86 77 75 87 92 99 81 55 83 63 54 52 72 52 40 33 28 31 27 26 35 29 30 26 25 24 32 38 61 93 61 48 44 40 40 45 35 43 62 74 48 41
81 80 75 66 64 75 99 98 73 48 44 55 66 51 56 49 53 38 38 33 26 26 30 30 32 32 49 35 35 36 63 82 75 65 46 34 34 38 63 59 28 29 40 56
69 69 80 78 82 90 99 98 89 97 73 65 52 70 48 36 33 39 52 41 40 30 41 54 52 44 61 57 55 49 56 70 90 74 51 42 47 34 42 46 24 23 30 24
72 68 68 73 81 95 98 93 90 89 78 52 52 41 52 60 34 34 27 51 53 65 66 54 47 40 39 41 41 39 48 49 74 83 85 78 32 20 21 27 24 23 23 22
78 75 66 75 81 94 98 96 98 90 82 50 46 41 45 39 51 44 40 44 68 73 85 64 50 49 51 46 39 40 40 47 75 95 74 65 43 24 22 24 26 18 17 17
76 77 75 67 76 76 96 97 100 98 88 65 43 45 49 64 56 49 40 54 84 82 85 78 70 58 43 42 42 36 39 47 63 66 74 83 33 25 22 19 31 22 26 30
94 82 77 68 75 79 94 98 94 100 99 64 53 73 86 82 72 60 48 72 79 90 95 91 69 62 41 61 59 58 58 63 71 70 69 45 21 19 22 39 59 40 37 41
99 97 80 74 73 77 88 94 95 99 96 74 58 53 63 60 82 93 73 86 85 97 96 76 59 65 57 56 58 66 57 70 73 62 63 62 20 24 33 61 60 55 52 47
99 99 94 79 72 73 84 94 91 96 100 68 71 67 59 57 73 92 100 68 99 79 84 61 63 79 70 54 61 76 93 45 52 43 45 33 32 50 53 53 57 59 53 50
99 99 97 85 73 71 76 95 87 95 99 88 81 69 64 66 69 69 90 76 74 93 95 96 86 81 60 65 50 60 82 57 44 54 40 27 55 54 53 54 55 55 56 58
99 99 96 85 74 73 78 85 90 96 95 79 60 58 64 61 64 69 73 71 69 98 100 99 93 79 68 80 55 66 74 88 55 53 57 75 86 74 58 58 61 64 64 67
90 100 92 79 72 74 76 84 87 88 83 74 74 70 59 53 74 52 57 78 85 96 99 98 87 62 70 61 54 54 46 83 76 79 73 85 88 68 63 66 68 72 70 72
91 97 86 68 65 72 90 99 86 84 93 98 79 82 77 79 68 74 74 72 98 99 98 99 71 57 64 72 79 82 78 58 67 67 64 68 73 78 80 76 77 75 76 81
88 86 67 64 69 84 98 94 92 60 89 99 83 56 68 83 81 80 85 97 100 98 100 98 78 70 65 81 72 94 76 59 67 64 63 64 79 87 88 86 86 82 89 93
73 73 73 76 85 94 99 77 90 98 99 97 94 87 86 84 94 100 99 99 100 100 98 98 94 66 71 93 83 70 71 64 68 67 65 84 82 80 79 81 86 91 93 97
84 87 97 99 99 98 97 93 99 100 91 98 96 93 86 74 74 83 98 100 100 99 99 80 69 84 92 94 82 82 81 76 75 72 73 73 82 79 81 85 86 93 98 100
99 99 98 99 100 99 99 99 99 98 87 95 84 62 83 70 71 71 71 76 73 82 78 83 84 95 85 79 84 88 86 84 90 82 86 87 89 87 94 98 100 100 100 100
98 99 100 98 100 99 100 98 99 98 99 76 70 66 79 86 86 76 68 87 76 75 87 89 92 89 85 77 83 89 96 96 100 100 99 97 98 99 99 100 100 100 100 100
99 97 100 99 98 96 100 100 97 81 67 69 76 72 84 87 89 84 75 74 74 73 85 88 90 89 84 82 91 98 99 95 95 96 98 99 97 99 100 100 100 100 98 96
92 94 96 99 98 99 94 87 80 90 89 90 94 95 96 91 88 84 94 88 80 70 84 90 86 81 88 94 92 98 99 99 99 100 100 100 100 100 100 100 99 95 94 97
75 75 87 90 82 85 90 92 95 100 100 99 98 99 96 98 89 94 97 96 92 89 89 92 90 91 97 100 100 98 100 95 99 100 100 100 96 95 95 93 95 95 95 97
74 68 86 81 86 91 95 98 96 98 97 99 99 94 90 94 92 81 89 90 91 84 90 89 94 97 98 99 99 94 94 95 98 99 95 95 97 94 95 95 95 96 95 96
80 87 82 88 86 90 93 98 98 98 98 99 93 93 88 90 85 92 90 92 91 91 89 92 95 98 95 94 94 94 96 96 98 100 99 97 95 95 96 97 96 95 92 81
76 85 97 94 84 91 96 99 99 99 99 96 90 89 93 92 85 84 81 89 90 90 96 98 98 99 97 95 96 97 96 96 97 100 98 98 98 100 100 100 100 98 85 80
Wind_Speed
20 19 20 15 14 13 11 12 4 7 15 13 9 10 17 27 19 14 13 8 12 12 9 9 13 11 4 6 6 7 12 6 10 18 18 14 16 14 18 7 9 12 5 1
21 20 19 16 16 16 12 9 19 17 11 7 12 16 20 24 22 18 17 13 12 15 13 13 12 14 10 6 4 8 10 6 9 9 8 13 17 19 12 14 8 6 5 5
21 21 19 15 15 15 17 7 4 18 17 20 16 16 19 18 23 19 25 18 14 14 13 12 11 11 3 3 3 7 6 8 10 9 4 6 7 16 20 16 6 5 8 4
22 20 20 17 17 14 16 9 7 10 5 14 16 19 9 18 18 21 19 18 18 15 13 15 15 15 17 12 7 5 3 5 12 15 17 16 12 15 13 9 13 9 12 13
22 22 21 20 21 19 21 9 7 15 19 21 14 19 19 21 17 19 16 18 17 15 17 16 15 12 12 7 5 2 5 3 12 11 9 9 9 10 7 17 15 5 9 7
24 22 22 22 21 23 21 23 22 10 8 12 15 13 18 22 19 15 18 13 15 15 9 7 13 6 5 8 10 10 2 3 4 3 8 9 8 11 14 16 8 5 9 5
25 24 24 25 24 27 28 21 14 10 13 12 14 18 13 16 19 19 16 14 14 6 10 10 11 12 14 14 15 15 13 9 3 4 6 5 4 2 8 12 7 11 12 4
28 28 26 26 26 26 31 27 19 11 10 17 20 17 16 15 18 13 13 7 4 3 6 4 6 9 9 17 19 19 15 12 4 4 4 8 10 4 2 3 6 11 3 6
30 30 28 27 27 26 29 30 25 20 8 13 22 18 15 12 11 10 13 4 5 3 2 1 4 6 9 7 6 21 17 14 10 7 4 3 7 3 2 1 2 10 11 9
34 32 32 29 28 26 31 26 28 18 8 16 14 5 7 8 6 8 7 6 5 3 3 3 7 11 13 8 11 10 15 12 13 11 8 6 6 3 3 6 5 15 16 14
40 38 35 32 29 29 31 30 25 25 14 21 17 18 17 14 11 4 2 3 1 4 4 4 6 5 6 7 7 6 13 10 8 10 9 12 3 4 5 12 18 13 11 11
32 37 39 35 32 31 29 27 25 24 19 13 10 18 26 24 23 11 5 5 2 3 4 6 3 5 3 5 3 4 3 9 7 9 8 6 7 18 16 17 17 10 10 12
27 31 40 37 33 31 32 26 21 20 21 22 25 27 23 19 21 17 8 6 6 5 7 5 4 5 2 2 4 1 4 15 10 2 8 8 16 13 18 14 14 11 11 12
22 24 39 37 34 31 31 31 23 21 5 6 15 17 20 23 23 17 21 23 27 19 16 5 3 2 7 3 5 6 4 4 4 7 3 11 19 9 18 17 14 13 12 13
21 29 37 36 32 30 29 28 27 27 22 2 6 18 22 17 14 21 25 21 19 17 3 4 3 3 1 3 3 5 4 3 2 4 9 17 11 17 16 15 13 13 12 12
25 33 35 33 31 29 23 14 30 32 26 8 3 7 9 12 24 22 20 25 18 8 3 4 6 6 2 2 1 10 11 15 20 6 10 12 15 17 16 14 14 13 15 14
28 32 32 31 30 30 30 9 7 29 29 4 3 4 5 14 15 18 16 17 8 8 3 4 5 5 4 2 1 5 10 13 12 16 17 7 18 11 15 13 14 12 13 12
29 30 29 29 29 27 27 23 4 23 24 4 3 3 4 12 6 4 8 6 8 7 5 4 3 4 3 2 6 9 13 10 13 16 12 10 9 12 14 14 13 12 12 11
27 26 23 21 21 13 20 28 10 26 10 7 5 3 2 11 6 7 9 8 2 5 3 4 3 2 2 4 8 11 12 10 13 12 8 9 11 11 13 13 12 10 10 10
31 28 13 5 16 19 25 21 10 8 8 5 4 6 3 6 8 7 5 4 3 4 5 3 3 3 6 6 7 7 9 10 11 10 11 10 10 8 10 11 10 10 10 10
30 9 6 25 30 17 5 7 6 7 4 8 9 12 4 4 4 3 6 2 2 3 4 5 6 3 3 6 9 9 8 8 10 9 7 6 6 10 11 11 11 11 11 12
12 21 28 20 5 2 4 5 5 6 5 4 6 6 5 3 2 1 3 3 2 2 7 3 4 3 7 6 7 8 8 7 10 10 10 11 11 12 13 13 14 14 14 14
30 10 5 5 3 5 4 5 4 4 2 2 2 4 4 2 2 1 2 1 2 2 3 3 3 11 10 9 8 10 10 10 11 12 12 13 14 14 15 16 15 15 16 15
5 3 4 3 3 4 4 4 4 4 5 8 7 5 2 1 2 1 2 2 2 2 3 4 6 12 10 10 10 9 11 12 13 15 16 18 18 18 17 17 15 14 15 15
5 6 4 4 4 6 3 3 5 5 5 5 8 4 1 2 2 1 1 2 1 5 4 4 11 11 11 11 11 12 13 14 14 15 17 17 17 18 18 15 15 15 14 13
6 8 3 2 6 6 9 9 10 4 4 3 2 2 2 2 1 1 4 5 4 3 5 13 12 12 12 13 13 13 14 15 16 15 16 16 15 15 15 13 11 10 9 8
5 4 9 6 11 9 7 8 5 4 3 2 2 3 4 1 2 3 5 4 6 13 14 13 13 13 14 14 15 15 15 15 15 14 13 14 14 13 12 12 11 9 10 11
Wind_Direction
275 263 269 271 256 253 267 259 238 218 175 184 212 238 234 253 267 283 251 266 282 291 301 282 280 275 52 72 354 331 309 265 234 239 257 212 263 251 220 229 228 243 253 269
275 272 264 261 244 243 242 245 243 254 218 215 223 238 242 252 263 255 269 244 249 261 269 276 264 259 277 65 356 15 354 253 251 260 242 256 216 246 252 230 241 226 258 231
269 264 260 250 249 247 228 266 250 229 221 240 254 245 244 247 253 260 268 256 251 246 241 250 264 284 252 352 347 117 350 276 271 261 205 353 296 220 216 223 230 215 227 163
267 260 251 245 241 235 227 234 241 251 224 235 231 251 259 241 240 235 242 257 251 249 263 261 255 250 262 255 195 153 82 290 315 295 303 209 219 251 252 219 228 238 235 245
268 262 251 250 239 234 230 236 235 255 261 262 259 235 240 256 251 259 228 242 245 248 252 248 263 298 321 267 301 8 139 277 323 305 285 278 273 208 238 284 211 228 188 307
265 261 254 246 239 223 225 235 244 285 260 276 265 249 251 244 249 232 274 259 278 242 258 7 302 307 224 273 289 285 162 270 332 271 314 301 267 252 190 220 260 232 246 256
263 257 251 247 238 229 225 230 237 236 255 261 262 269 225 262 247 248 240 254 242 333 337 295 273 269 263 245 252 258 267 274 260 289 313 228 233 33 258 246 223 241 258 327
257 255 249 245 236 234 226 232 233 239 251 252 269 260 272 270 253 273 266 288 341 293 357 286 277 258 251 243 240 239 227 234 231 251 235 307 302 222 280 205 233 253 166 136
258 251 246 241 234 230 232 231 224 232 239 239 254 273 283 284 291 243 240 199 128 128 121 301 238 243 241 224 227 214 219 213 221 226 235 261 227 143 169 329 125 83 86 65
251 246 241 234 230 227 224 229 225 232 264 244 255 280 319 332 280 260 265 159 164 143 152 213 252 254 255 251 246 187 202 200 213 226 243 251 274 171 141 202 79 44 46 48
251 236 232 230 221 220 222 229 224 222 245 266 262 258 263 280 279 272 18 140 196 151 192 242 243 257 251 250 210 220 189 191 205 225 244 249 245 269 176 92 66 56 34 58
253 238 218 221 214 215 217 225 218 224 229 250 287 267 258 258 265 282 252 275 100 235 210 233 276 251 291 305 272 80 245 208 200 190 214 298 91 101 90 92 98 59 42 35
249 231 208 210 208 209 211 213 213 217 236 268 265 260 253 256 254 255 262 282 246 218 281 304 236 262 314 281 275 97 302 300 226 309 254 203 111 113 99 89 80 66 49 39
215 215 198 202 203 205 207 207 207 211 189 238 266 263 258 256 241 248 240 256 271 284 301 282 277 249 11 295 308 311 214 349 259 228 89 44 52 55 79 75 67 62 57 52
213 197 191 196 196 199 206 214 211 214 206 278 293 299 264 243 233 237 239 247 251 269 263 257 245 285 186 284 280 283 352 140 248 77 45 103 100 67 64 67 59 53 59 55
181 184 185 188 190 191 193 220 230 219 221 266 294 308 286 257 239 235 236 227 242 238 187 280 276 237 258 274 340 32 36 42 42 44 14 58 81 65 47 50 40 45 57 54
177 182 183 184 188 192 190 191 236 216 206 245 272 250 252 218 211 217 216 207 208 195 189 242 255 293 216 291 280 81 37 17 42 27 18 53 33 36 26 30 29 50 55 45
175 178 182 187 191 199 209 208 251 182 173 192 253 272 166 163 165 150 175 187 184 209 203 218 256 229 221 152 73 41 17 11 32 15 24 54 23 30 29 29 34 48 45 43
164 168 176 182 181 169 198 200 188 166 167 184 227 255 174 175 176 171 172 163 179 185 229 207 180 195 85 48 34 37 23 12 352 355 46 34 39 33 28 27 31 48 48 48
160 165 141 120 149 150 125 138 151 165 222 243 250 233 216 194 187 179 165 176 199 189 213 139 190 91 91 81 73 49 22 14 12 21 18 18 24 34 48 43 46 56 65 71
147 147 133 136 143 131 123 147 177 175 197 213 227 223 172 203 202 186 206 201 195 230 158 197 172 110 88 75 58 45 36 41 45 65 56 56 71 73 79 72 73 79 86 92
129 124 130 123 141 167 181 174 171 201 199 165 181 145 163 119 141 223 213 210 184 266 149 220 113 97 96 76 64 56 54 65 73 78 80 80 85 83 87 87 87 91 94 98
117 105 107 175 173 204 190 145 171 146 91 123 121 111 83 108 63 101 305 200 217 168 202 67 71 109 88 87 84 71 69 72 77 78 83 87 92 98 90 96 101 107 108 110
90 101 86 5 99 55 37 23 49 67 67 100 95 81 83 104 141 6 263 53 272 225 206 81 103 96 88 82 90 92 85 89 90 92 94 93 97 99 103 102 105 107 102 98
61 34 57 69 87 58 70 72 96 74 98 121 116 91 165 72 100 6 63 198 179 33 56 82 99 105 108 103 101 102 101 102 98 98 101 102 105 104 101 101 105 105 104 100
55 40 88 28 117 86 48 61 80 63 94 93 80 115 129 92 84 173 7 303 50 63 88 104 104 102 106 108 110 110 108 104 104 104 105 105 100 99 99 98 92 91 86 84
63 66 30 65 66 61 52 33 11 20 338 64 50 51 43 283 102 75 6 24 96 102 100 102 110 111 111 111 107 107 108 105 102 101 96 89 82 78 76 73 62 55 53 51